[[{"header":{"parameterUnit":"m.s-1","parameterCategory":1,"la1":30.2991,"la2":30.254,"lo1":-89.0895,"lo2":-89.0444,"dy":0.0017,"dx":0.0017,"nx":28,"ny":28,"refTime":"2024-08-25T03:00:00:Z","depth":0,"parameterNumber":2,"parameterNumberName":"U-component_of_WINDS"},"data":[0,0,0,0,0,0,0,0,0,0,0,0,0,0,0,0,0,0,0,0,0,0,0,0,0,0,0,0,0,0,0,0,0,0,0,0,0,0,0,0,0,0,0,0,0,0,0,0,0,0,0,0,0,0,0,0,0,0,-2.5098,-2.5099,0,-2.5141,-2.5141,-2.5142,-2.5143,-2.5142,-2.5142,-2.5141,-2.5185,-2.5186,-2.5188,0,0,0,0,0,0,0,0,0,0,0,0,0,-2.5018,-2.5019,-2.5098,-2.5099,-2.5099,-2.5141,-2.5141,-2.5142,-2.5143,-2.5142,-2.5142,-2.5141,-2.5184,-2.5186,-2.5188,0,0,0,0,0,0,0,0,0,0,0,0,0,-2.5056,-2.502,-2.5098,-2.5105,-2.5106,-2.5141,-2.5141,-2.5142,-2.5143,-2.5142,-2.5141,-2.5141,-2.5183,-2.5186,-2.5188,-2.5219,0,0,-2.5196,-2.5197,0,0,0,0,0,0,0,0,-2.5054,-2.5059,-2.5103,-2.5104,-2.5106,-2.5136,-2.5129,-2.5168,-2.5143,-2.5129,-2.5141,-2.514,-2.5169,-2.5172,-2.5182,-2.5221,-2.5223,-2.5196,-2.5197,-2.5198,-2.5199,0,0,0,0,0,0,0,-2.5051,-2.5057,-2.5115,-2.5104,-2.5105,-2.5106,-2.511,-2.5136,-2.5153,-2.513,-2.513,-2.5135,-2.5169,-2.518,-2.5183,-2.5224,-2.5196,-2.5198,-2.52,-2.52,-2.5292,-2.5293,0,0,0,0,0,0,-2.5047,-2.5055,-2.5114,-2.5116,-2.5077,-2.5108,-2.5113,-2.5127,-2.5152,-2.5156,-2.5136,-2.5135,-2.5176,-2.518,-2.5185,-2.5224,-2.5198,-2.5201,-2.5202,-2.5291,-2.5292,-2.5293,0,0,0,0,0,0,-2.5045,-2.5052,-2.5112,-2.5086,-2.5093,-2.511,-2.5126,-2.5128,-2.5139,-2.5157,-2.516,-2.5144,-2.5176,-2.5181,-2.5211,-2.5225,-2.5202,-2.5204,-2.529,-2.5292,-2.5293,-2.5302,0,0,0,0,0,0,-2.5043,-2.5052,-2.5063,-2.5086,-2.5095,-2.5137,-2.5127,-2.5129,-2.5143,-2.5142,-2.5165,-2.5168,-2.5175,-2.5207,-2.5213,-2.5228,-2.5206,-2.5289,-2.5291,-2.5292,-2.53,-2.5303,-2.5306,0,0,0,0,0,-2.504,-2.5064,-2.5064,-2.5071,-2.511,-2.5138,-2.5143,-2.5151,-2.5144,-2.5156,-2.5168,-2.5167,-2.5223,-2.521,-2.5217,-2.5233,-2.5288,-2.529,-2.5292,-2.5299,-2.5303,-2.5306,0,0,0,0,0,0,-2.5042,-2.5067,-2.5067,-2.5099,-2.5116,-2.5138,-2.5154,-2.5155,-2.5175,-2.5173,-2.5183,-2.5188,-2.5218,-2.5228,-2.5214,-2.5266,-2.5255,-2.5258,-2.5257,-2.5261,-2.5264,-2.5261,-2.5208,0,0,0,0,0,-2.5046,-2.5067,-2.5087,-2.5113,-2.5122,-2.5136,-2.5149,-2.5154,-2.5173,-2.518,-2.5194,-2.5212,-2.5234,-2.5248,-2.5269,-2.5302,-2.5308,-2.5316,-2.5319,-2.5322,-2.5325,-2.5345,-2.5349,-2.5301,-2.53,-2.53,0,0,-2.5054,-2.507,-2.5083,-2.5114,-2.5128,-2.515,-2.5143,-2.5166,-2.5182,-2.5183,-2.5213,-2.5224,-2.5245,-2.5277,-2.5292,-2.5287,-2.534,-2.5324,-2.5326,-2.5328,-2.5347,-2.5352,-2.5356,-2.5302,-2.5302,-2.5301,0,0,-2.5081,-2.5095,-2.5119,-2.5134,-2.5156,-2.5165,-2.5171,-2.5193,-2.5201,-2.5231,-2.5233,-2.5253,-2.5289,-2.5305,-2.5317,-2.5352,-2.5352,-2.5359,-2.5374,-2.5393,-2.5397,-2.54,-2.5414,-2.5419,-2.5362,-2.5362,-2.5362,0,-2.5088,-2.5122,-2.5131,-2.5155,-2.5169,-2.5171,-2.5196,-2.521,-2.5238,-2.5247,-2.5242,-2.5289,-2.5303,-2.534,-2.5349,-2.5358,-2.5366,-2.5356,-2.5396,-2.5399,-2.5403,-2.5416,-2.5421,-2.5362,-2.5362,-2.5362,-2.5362,0,-2.5131,-2.5154,-2.517,-2.5198,-2.5214,-2.5238,-2.5251,-2.5266,-2.527,-2.5281,-2.5312,-2.5329,-2.5355,-2.5363,-2.5367,-2.5401,-2.5398,-2.5393,-2.5383,-2.5408,-2.542,-2.5425,-2.5363,-2.5363,-2.5363,-2.5363,0,0,-2.5159,-2.5192,-2.5198,-2.5211,-2.5237,-2.5255,-2.528,-2.5305,-2.5318,-2.5338,-2.5359,-2.5391,-2.5389,-2.5403,-2.5409,-2.5426,-2.5454,-2.542,-2.542,-2.5426,-2.5494,-2.5497,-2.5503,-2.5454,-2.5455,-2.5456,-2.5493,0,-2.5189,-2.5233,-2.5243,-2.5281,-2.5303,-2.5307,-2.5329,-2.5347,-2.5358,-2.5379,-2.5391,-2.5414,-2.5407,-2.5417,-2.5433,-2.5447,-2.5468,-2.5444,-2.5475,-2.5476,-2.547,-2.5509,-2.5513,-2.5546,-2.5497,-2.5498,-2.5499,0,-2.523,-2.5251,-2.5292,-2.5316,-2.5326,-2.5345,-2.537,-2.539,-2.5411,-2.5418,-2.5435,-2.5439,-2.5466,-2.5454,-2.5492,-2.5476,-2.5489,-2.5498,-2.5499,-2.5503,-2.5489,-2.5515,-2.5557,-2.5562,-2.5506,-2.5506,-2.5505,0,-2.5247,-2.5286,-2.5316,-2.5327,-2.5356,-2.537,-2.5382,-2.5403,-2.5418,-2.544,-2.545,-2.5475,-2.5488,-2.5507,-2.5519,-2.5509,-2.5556,-2.5545,-2.5564,-2.5563,-2.5573,-2.5573,-2.5619,-2.5581,-2.5581,-2.5581,-2.558,0,-2.5281,-2.5306,-2.5325,-2.5343,-2.5372,-2.5383,-2.5411,-2.5424,-2.5443,-2.5464,-2.5469,-2.5489,-2.5502,-2.5525,-2.5534,-2.5564,-2.557,-2.5577,-2.5579,-2.5577,-2.5576,-2.5586,-2.5585,-2.5582,-2.5582,-2.5581,-2.5581,0,-2.5305,-2.5319,-2.5352,-2.5377,-2.5384,-2.5404,-2.5426,-2.5444,-2.5456,-2.5483,-2.549,-2.5508,-2.5535,-2.5548,-2.5581,-2.5587,-2.5622,-2.5622,-2.5615,-2.5616,-2.5635,-2.5633,-2.569,-2.5698,-2.5653,-2.5654,-2.5654,0,-2.5326,-2.5345,-2.5373,-2.5388,-2.5401,-2.5425,-2.5441,-2.5453,-2.5469,-2.5496,-2.5512,-2.5539,-2.5561,-2.5604,-2.562,-2.5646,-2.5647,-2.5666,-2.5651,-2.5649,-2.5649,-2.5648,-2.5651,-2.5668,-2.5669,-2.5669,-2.5669,0,-2.5361,-2.5367,-2.539,-2.5416,-2.5435,-2.5456,-2.5477,-2.5489,-2.5504,-2.5523,-2.5551,-2.5568,-2.5602,-2.563,-2.5657,-2.567,-2.5673,-2.5674,-2.568,-2.5678,-2.5673,-2.5677,-2.5623,-2.5672,-2.5672,-2.5672,-2.5672,-2.5672,-2.5385,-2.5403,-2.5426,-2.5452,-2.5469,-2.5488,-2.5508,-2.5522,-2.5545,-2.5575,-2.5581,-2.561,-2.5633,-2.567,-2.5684,-2.5708,-2.5704,-2.5713,-2.5715,-2.5717,-2.5719,-2.5669,-2.5713,-2.5713,-2.5713,-2.5713,-2.5713,0,-2.5421,-2.5437,-2.546,-2.549,-2.5511,-2.5511,-2.5535,-2.5552,-2.5578,-2.5599,-2.5622,-2.5654,-2.5681,-2.57,-2.5728,-2.5744,-2.5746,-2.5751,-2.575,-2.5753,-2.572,-2.5712,-2.5749,-2.5749,-2.5749,-2.5749,-2.5749,-2.5749,-2.5443,-2.5475,-2.5484,-2.5525,-2.554,-2.5569,-2.5583,-2.5601,-2.5618,-2.5655,-2.5677,-2.569,-2.571,-2.574,-2.5765,-2.577,-2.5781,-2.5786,-2.5791,-2.5759,-2.5756,-2.5752,-2.5745,-2.5788,-2.5788,-2.5823,-2.5823,-2.5823]},{"header":{"parameterUnit":"m.s-1","parameterCategory":1,"la1":30.2991,"la2":30.254,"lo1":-89.0895,"lo2":-89.0444,"dy":0.0017,"dx":0.0017,"nx":28,"ny":28,"refTime":"2024-08-25T03:00:00:Z","depth":0,"parameterNumber":3,"parameterNumberName":"V-component_of_WINDS"},"data":[0,0,0,0,0,0,0,0,0,0,0,0,0,0,0,0,0,0,0,0,0,0,0,0,0,0,0,0,0,0,0,0,0,0,0,0,0,0,0,0,0,0,0,0,0,0,0,0,0,0,0,0,0,0,0,0,0,0,-2.4545,-2.4545,0,-2.4475,-2.4474,-2.4473,-2.4371,-2.437,-2.4368,-2.4366,-2.4292,-2.4292,-2.4292,0,0,0,0,0,0,0,0,0,0,0,0,0,-2.4592,-2.4592,-2.4545,-2.4545,-2.4544,-2.4475,-2.4474,-2.4473,-2.4372,-2.4369,-2.4367,-2.4365,-2.4292,-2.4292,-2.4292,0,0,0,0,0,0,0,0,0,0,0,0,0,-2.4552,-2.4591,-2.4546,-2.4485,-2.4479,-2.4475,-2.4474,-2.4472,-2.4372,-2.4369,-2.4367,-2.4364,-2.4293,-2.4292,-2.4292,-2.4341,0,0,-2.429,-2.429,0,0,0,0,0,0,0,0,-2.4554,-2.455,-2.4495,-2.4489,-2.4482,-2.4429,-2.4463,-2.4428,-2.4373,-2.4413,-2.4366,-2.4363,-2.434,-2.4335,-2.4328,-2.4338,-2.4334,-2.429,-2.429,-2.4289,-2.4289,0,0,0,0,0,0,0,-2.4557,-2.4552,-2.4517,-2.4494,-2.4486,-2.4461,-2.4452,-2.4456,-2.4392,-2.4409,-2.4401,-2.4394,-2.4336,-2.4329,-2.4325,-2.4333,-2.429,-2.429,-2.4289,-2.4289,-2.438,-2.4382,0,0,0,0,0,0,-2.4569,-2.4555,-2.452,-2.4515,-2.4512,-2.4462,-2.4452,-2.4449,-2.4391,-2.438,-2.4397,-2.439,-2.4331,-2.4326,-2.4322,-2.4377,-2.4289,-2.4289,-2.4289,-2.4377,-2.438,-2.4383,0,0,0,0,0,0,-2.457,-2.4567,-2.4522,-2.4533,-2.4526,-2.4464,-2.4461,-2.4449,-2.4441,-2.4382,-2.437,-2.4401,-2.4328,-2.4323,-2.4337,-2.4373,-2.4289,-2.4288,-2.4374,-2.4378,-2.4382,-2.4486,0,0,0,0,0,0,-2.4572,-2.4568,-2.4586,-2.4534,-2.4526,-2.4539,-2.4463,-2.4449,-2.4441,-2.4431,-2.4383,-2.4373,-2.4326,-2.4339,-2.4337,-2.437,-2.4288,-2.4371,-2.4376,-2.4381,-2.4479,-2.4493,-2.4505,0,0,0,0,0,-2.4574,-2.4618,-2.4588,-2.4584,-2.4547,-2.4542,-2.4536,-2.4482,-2.4444,-2.4462,-2.4424,-2.4374,-2.4369,-2.4341,-2.4338,-2.4372,-2.4368,-2.4374,-2.438,-2.4473,-2.449,-2.4505,0,0,0,0,0,0,-2.4675,-2.461,-2.4576,-2.4604,-2.458,-2.4525,-2.4546,-2.4502,-2.4487,-2.4479,-2.4411,-2.4401,-2.4424,-2.4399,-2.4369,-2.4417,-2.4361,-2.4367,-2.4433,-2.4448,-2.4461,-2.4467,-2.4288,0,0,0,0,0,-2.4701,-2.4702,-2.4645,-2.4676,-2.4665,-2.4608,-2.4603,-2.4564,-2.4535,-2.4524,-2.4486,-2.446,-2.4452,-2.4449,-2.4438,-2.4475,-2.4463,-2.4497,-2.451,-2.452,-2.4527,-2.4544,-2.4559,-2.4403,-2.4403,-2.4403,0,0,-2.4754,-2.4719,-2.4724,-2.4695,-2.4671,-2.4674,-2.46,-2.4605,-2.4606,-2.4524,-2.4536,-2.4508,-2.4473,-2.4499,-2.4509,-2.4479,-2.4567,-2.4528,-2.4537,-2.4537,-2.4552,-2.4567,-2.458,-2.4408,-2.4407,-2.4406,0,0,-2.4853,-2.4826,-2.4849,-2.4826,-2.4791,-2.4752,-2.4758,-2.471,-2.4688,-2.4699,-2.4637,-2.4637,-2.4625,-2.4603,-2.4591,-2.4681,-2.4634,-2.4679,-2.4747,-2.4765,-2.4777,-2.4788,-2.4821,-2.4833,-2.4685,-2.4685,-2.4686,0,-2.4923,-2.4925,-2.4866,-2.4876,-2.4865,-2.4791,-2.4814,-2.4794,-2.4758,-2.4752,-2.4719,-2.4703,-2.4674,-2.4694,-2.4716,-2.4708,-2.4713,-2.4685,-2.478,-2.479,-2.4799,-2.483,-2.4842,-2.4691,-2.4691,-2.469,-2.4689,0,-2.5014,-2.5016,-2.5038,-2.5005,-2.4997,-2.5013,-2.4956,-2.4955,-2.4916,-2.4881,-2.4892,-2.4856,-2.4837,-2.4838,-2.48,-2.4853,-2.4836,-2.4793,-2.4735,-2.4821,-2.4848,-2.4859,-2.4699,-2.4697,-2.4696,-2.4694,0,0,-2.5175,-2.5108,-2.5118,-2.5102,-2.5057,-2.5058,-2.507,-2.5052,-2.5052,-2.5029,-2.5038,-2.503,-2.499,-2.4976,-2.4934,-2.495,-2.5024,-2.4904,-2.4903,-2.4929,-2.508,-2.5113,-2.5128,-2.4992,-2.4994,-2.4996,-2.5083,0,-2.5265,-2.5283,-2.5231,-2.5262,-2.5264,-2.5193,-2.5204,-2.5178,-2.5145,-2.5141,-2.5104,-2.51,-2.5047,-2.5038,-2.505,-2.5013,-2.5054,-2.5005,-2.5,-2.5001,-2.5012,-2.5142,-2.5177,-2.5262,-2.5093,-2.5095,-2.5096,0,-2.5373,-2.5356,-2.5388,-2.5342,-2.534,-2.5351,-2.533,-2.5327,-2.5296,-2.5271,-2.5255,-2.5207,-2.5216,-2.516,-2.5171,-2.5139,-2.5134,-2.5115,-2.5117,-2.5115,-2.5055,-2.5145,-2.5287,-2.53,-2.5113,-2.5111,-2.511,0,-2.5488,-2.5473,-2.549,-2.5479,-2.5425,-2.5434,-2.5412,-2.5378,-2.5371,-2.5352,-2.5347,-2.5329,-2.532,-2.5307,-2.5255,-2.522,-2.5273,-2.5213,-2.5252,-2.5254,-2.5267,-2.5267,-2.5412,-2.5263,-2.5263,-2.5262,-2.5262,0,-2.5595,-2.5618,-2.5542,-2.5553,-2.5576,-2.5514,-2.5539,-2.5509,-2.548,-2.5483,-2.542,-2.5425,-2.5356,-2.5353,-2.5312,-2.5327,-2.5323,-2.5303,-2.5292,-2.5309,-2.5312,-2.5306,-2.5299,-2.5266,-2.5265,-2.5264,-2.5264,0,-2.5728,-2.5678,-2.5692,-2.564,-2.5628,-2.5647,-2.5602,-2.561,-2.5573,-2.5579,-2.5576,-2.5519,-2.5511,-2.5458,-2.5439,-2.5411,-2.5442,-2.5419,-2.5454,-2.5446,-2.5489,-2.5487,-2.5636,-2.5652,-2.5492,-2.5494,-2.5495,0,-2.58,-2.5816,-2.5766,-2.5764,-2.5745,-2.5743,-2.5735,-2.5675,-2.5669,-2.5634,-2.5646,-2.5634,-2.5622,-2.5613,-2.557,-2.5554,-2.5531,-2.5584,-2.5528,-2.5545,-2.5533,-2.5533,-2.5534,-2.5597,-2.5599,-2.56,-2.5602,0,-2.5934,-2.5908,-2.5899,-2.5883,-2.5875,-2.5859,-2.5838,-2.584,-2.5774,-2.5771,-2.5763,-2.5753,-2.5734,-2.5723,-2.57,-2.5676,-2.5628,-2.562,-2.5628,-2.5646,-2.5666,-2.5657,-2.5487,-2.5617,-2.5615,-2.5614,-2.5613,-2.5613,-2.6039,-2.605,-2.6016,-2.6009,-2.5987,-2.597,-2.5975,-2.5939,-2.5931,-2.5912,-2.5876,-2.5874,-2.5841,-2.5805,-2.5786,-2.5783,-2.5754,-2.5767,-2.577,-2.5774,-2.5784,-2.5666,-2.5778,-2.5777,-2.5777,-2.5777,-2.5776,0,-2.617,-2.6145,-2.6138,-2.6112,-2.6107,-2.6062,-2.6037,-2.6035,-2.6034,-2.6008,-2.5997,-2.5988,-2.5977,-2.5932,-2.5916,-2.5922,-2.59,-2.592,-2.5919,-2.5915,-2.5809,-2.5804,-2.5938,-2.5938,-2.5938,-2.5938,-2.5938,-2.5938,-2.6237,-2.6254,-2.6224,-2.6229,-2.6203,-2.6202,-2.6191,-2.6175,-2.6153,-2.6147,-2.6138,-2.6108,-2.6075,-2.6055,-2.6043,-2.603,-2.6027,-2.6055,-2.6035,-2.5938,-2.5922,-2.5907,-2.5902,-2.6055,-2.6055,-2.6141,-2.6142,-2.6142]}]]